Location: Matera
(40.6670°N, 16.6000°E)
Time: 07:30:44
(UTC+02:00)

ISS - Pass Details

Date: 27 January 2019
Orbit: 411 x 421 km, 51.6° (Epoch: 23 October)

Event Time Altitude Azimuth Distance (km) Brightness Sun altitude
Rises 18:11:28 0° 275° (W) 2,410 1.6 -12.8°
Reaches altitude 10° 18:13:59 10° 293° (WNW) 1,547 0.0 -13.3°
Maximum altitude 18:16:37 20° 342° (NNW) 1,085 -1.6 -13.8°
Enters shadow 18:18:38 13° 23° (NNE) 1,380 -1.5 -14.1°
